Weather History for KBVE - July, 2013

Change the Weather History Date:

Saturday, July 20, 2013

  Actual Average Record
Temperature  
Mean Temperature 81 °F -  
Max Temperature 84 °F - - ()
Min Temperature 78 °F - - ()
Cooling Degree Days 16    
Growing Degree Days 31 (Base 50)    
Moisture  
Dew Point 74 °F    
Average Humidity 80    
Maximum Humidity 94    
Minimum Humidity 69    
Precipitation  
Precipitation 0.01 in - - ()
Sea Level Pressure  
Sea Level Pressure 29.99 in    
Wind  
Wind Speed 5 mph (WSW)    
Max Wind Speed 16 mph    
Max Gust Speed 20 mph    
Visibility 10 miles    
Events      
T = Trace of Precipitation, MM = Missing Value Source: NWS Daily Summary

Daily Weather History Graph

Daily Weather History Graph

Search for Another Location

Airport or City:

Trip Planner

Search our weather history database for the weather conditions in past years. The results will help you decide how hot, cold, wet, or windy it might be!

Date:

Astronomy

Jul. 20, 2013 Rise Set
Actual Time 6:11 AM CDT 7:56 PM CDT
Civil Twilight 5:44 AM CDT 8:22 PM CDT
Nautical Twilight 5:12 AM CDT 8:54 PM CDT
Astronomical Twilight 4:39 AM CDT 9:28 PM CDT
Moon 6:00 PM CDT (7/20) 3:50 AM CDT (7/20)
Length of Visible Light 14h 38m
Length of Day
13h 45m
Waxing Gibbous, 94% of the Moon is Illuminated
Jul 20
Waxing Gibbous
Jul 22
Full
Jul 29
Last Quarter
Aug 6
New
Aug 14
First Quarter

Hourly Weather History & Observations

Time (CDT) Temp. Heat Index Dew Point Humidity Pressure Visibility Wind Dir Wind Speed Gust Speed Precip Events Conditions
12:51 AM 79.0 °F - 77.0 °F 94% 29.98 in 10.0 mi Calm Calm - N/A   Clear
1:51 AM 79.0 °F - 75.9 °F 90% 29.97 in 10.0 mi Calm Calm - N/A   Clear
2:51 AM 79.0 °F - 75.9 °F 90% 29.97 in 10.0 mi Calm Calm - N/A   Clear
3:36 AM 78.8 °F - 75.2 °F 89% 29.97 in 10.0 mi Calm Calm - N/A   Mostly Cloudy
3:51 AM 79.0 °F - 75.9 °F 90% 29.97 in 10.0 mi Calm Calm - N/A   Mostly Cloudy
4:00 AM 78.8 °F - 75.2 °F 89% 29.97 in 10.0 mi West 3.5 mph - N/A   Scattered Clouds
4:15 AM 78.8 °F - 75.2 °F 89% 29.96 in 10.0 mi WNW 3.5 mph - N/A   Mostly Cloudy
4:27 AM 78.8 °F - 75.2 °F 89% 29.96 in 10.0 mi West 3.5 mph - N/A   Mostly Cloudy
4:51 AM 79.0 °F - 75.9 °F 90% 29.97 in 10.0 mi WNW 4.6 mph - N/A   Partly Cloudy
5:51 AM 79.0 °F - 75.9 °F 90% 29.98 in 10.0 mi West 3.5 mph - N/A   Clear
6:51 AM 80.1 °F 85.4 °F 75.9 °F 87% 29.98 in 10.0 mi Calm Calm - N/A   Partly Cloudy
7:51 AM 82.0 °F 89.4 °F 75.9 °F 82% 29.99 in 10.0 mi NW 8.1 mph - N/A   Clear
8:51 AM 82.9 °F 90.2 °F 75.0 °F 77% 30.01 in 10.0 mi NNW 4.6 mph - N/A   Clear
9:51 AM 84.0 °F 91.2 °F 73.9 °F 72% 30.02 in 10.0 mi Variable 3.5 mph - N/A   Clear
10:51 AM 84.9 °F 92.1 °F 73.9 °F 69% 30.04 in 10.0 mi Calm Calm - N/A   Clear
11:51 AM 79.0 °F - 73.0 °F 82% 30.05 in 10.0 mi South 16.1 mph - N/A   Mostly Cloudy
12:51 PM 81.0 °F 84.9 °F 71.1 °F 72% 30.03 in 10.0 mi SW 5.8 mph - 0.01 in   Mostly Cloudy
1:51 PM 82.9 °F 90.2 °F 75.0 °F 77% 29.99 in 10.0 mi WSW 6.9 mph - 0.00 in   Clear
2:19 PM 82.4 °F 89.5 °F 75.2 °F 79% 29.99 in 10.0 mi SW 12.7 mph - N/A   Scattered Clouds
2:34 PM 82.4 °F 89.5 °F 75.2 °F 79% 29.99 in 10.0 mi SW 10.4 mph - N/A   Mostly Cloudy
2:51 PM 82.9 °F 90.2 °F 75.0 °F 77% 30.00 in 10.0 mi SW 10.4 mph - N/A   Scattered Clouds
3:05 PM 82.4 °F 89.5 °F 75.2 °F 79% 30.00 in 10.0 mi SW 12.7 mph - N/A   Mostly Cloudy
3:14 PM 82.4 °F 89.5 °F 75.2 °F 79% 30.00 in 10.0 mi WSW 11.5 mph - N/A   Scattered Clouds
3:28 PM 82.4 °F 88.2 °F 73.4 °F 74% 30.00 in 10.0 mi SW 11.5 mph - N/A   Mostly Cloudy
3:51 PM 82.9 °F 90.2 °F 75.0 °F 77% 29.99 in 10.0 mi SW 13.8 mph 19.6 mph N/A   Mostly Cloudy
4:41 PM 84.2 °F 92.3 °F 75.2 °F 74% 29.98 in 10.0 mi SW 13.8 mph - N/A   Partly Cloudy
4:51 PM 82.9 °F 89.4 °F 73.9 °F 74% 29.98 in 10.0 mi SW 13.8 mph 19.6 mph N/A   Partly Cloudy
5:51 PM 82.0 °F 87.9 °F 73.9 °F 76% 29.96 in 10.0 mi WSW 11.5 mph - N/A   Partly Cloudy
6:51 PM 82.0 °F 87.4 °F 73.0 °F 74% 29.96 in 10.0 mi SW 10.4 mph - N/A   Partly Cloudy
7:51 PM 81.0 °F 84.9 °F 71.1 °F 72% 29.98 in 10.0 mi WSW 9.2 mph - N/A   Clear
8:51 PM 81.0 °F 85.2 °F 72.0 °F 74% 29.99 in 10.0 mi SW 11.5 mph - N/A   Clear
9:51 PM 81.0 °F 85.8 °F 73.0 °F 77% 30.01 in 10.0 mi SW 9.2 mph - N/A   Clear
10:51 PM 81.0 °F 85.2 °F 72.0 °F 74% 30.03 in 10.0 mi SSW 11.5 mph - N/A   Clear
11:51 PM 81.0 °F 84.4 °F 70.0 °F 69% 30.03 in 10.0 mi SSW 10.4 mph - N/A   Clear